• In Uzbekistan
  • List of Countries
  • For 7 days
  • Water Temperature
  • Weather Map
  • Weather Widgets
  • user-avatar
    Login

    Hourly Weather Lankaran

    Today, 9 April, Thursday

    Time Temperature Precipitation Wind Pressure Humidity
    00:00 -6°C° 0 mm 1 mps 635 mmHg 86%
    01:00 -6°C° 0 mm 1 mps 635 mmHg 84%
    02:00 -6°C° 0 mm 1 mps 634 mmHg 82%
    03:00 -3°C° 0 mm 1 mps 634 mmHg 79%
    04:00 -3°C° 0 mm 1 mps 634 mmHg 80%
    05:00 -3°C° 0 mm 1 mps 634 mmHg 80%
    06:00 -2°C° 0 mm 1 mps 633 mmHg 81%
    07:00 -1°C° 0 mm 1 mps 634 mmHg 79%
    08:00 -2°C° 0 mm 2 mps 634 mmHg 77%
    09:00 +1°C° 0 mm 2 mps 634 mmHg 75%
    10:00 +2°C° 0 mm 2 mps 634 mmHg 76%
    11:00 +2°C° 0 mm 2 mps 634 mmHg 78%
    12:00 +3°C° 0 mm 2 mps 633 mmHg 79%
    13:00 +3°C° 0 mm 2 mps 633 mmHg 81%
    14:00 +3°C° 0 mm 2 mps 632 mmHg 83%
    15:00 +3°C° 0 mm 2 mps 631 mmHg 86%
    16:00 +2°C° 0 mm 2 mps 631 mmHg 89%
    17:00 +1°C° 0 mm 2 mps 631 mmHg 92%
    18:00 +2°C° 0 mm 1 mps 630 mmHg 95%
    19:00 +2°C° 0 mm 1 mps 630 mmHg 95%
    20:00 +2°C° 0 mm 1 mps 630 mmHg 96%
    21:00 +1°C° 0 mm 1 mps 630 mmHg 96%
    22:00 +2°C° 0 mm 1 mps 630 mmHg 96%
    23:00 +2°C° 0 mm 1 mps 630 mmHg 96%

    Tomorrow, 10 April, Friday

    Time Temperature Precipitation Wind Pressure Humidity
    00:00 +1°C° 0 mm 0 mps 630 mmHg 95%
    01:00 +2°C° 0 mm 1 mps 630 mmHg 96%
    02:00 +2°C° 0 mm 1 mps 629 mmHg 96%
    03:00 +2°C° 0 mm 1 mps 629 mmHg 96%
    04:00 +2°C° 0 mm 1 mps 629 mmHg 96%
    05:00 +2°C° 0 mm 1 mps 629 mmHg 96%
    06:00 +2°C° 0 mm 1 mps 629 mmHg 95%
    07:00 +2°C° 0 mm 1 mps 629 mmHg 93%
    08:00 +3°C° 0 mm 1 mps 629 mmHg 91%
    09:00 +3°C° 0 mm 1 mps 629 mmHg 89%
    10:00 +3°C° 0 mm 2 mps 629 mmHg 88%
    11:00 +3°C° 0 mm 2 mps 629 mmHg 87%
    12:00 +3°C° 0 mm 2 mps 629 mmHg 86%
    13:00 +4°C° 0 mm 2 mps 629 mmHg 85%
    14:00 +4°C° 0 mm 2 mps 628 mmHg 84%
    15:00 +5°C° 0 mm 2 mps 628 mmHg 83%
    16:00 +4°C° 0.1 mm 2 mps 628 mmHg 86%
    17:00 +3°C° 0.1 mm 2 mps 628 mmHg 89%
    18:00 +3°C° 0.1 mm 1 mps 627 mmHg 92%
    19:00 +3°C° 0 mm 1 mps 627 mmHg 92%
    20:00 +2°C° 0 mm 1 mps 628 mmHg 92%
    21:00 +2°C° 0 mm 1 mps 628 mmHg 93%
    22:00 +2°C° 0 mm 1 mps 627 mmHg 92%
    23:00 +1°C° 0 mm 0 mps 627 mmHg 92%

    Day after tomorrow, 11 April, Saturday

    Time Temperature Precipitation Wind Pressure Humidity
    00:00 0°C° 0 mm 0 mps 627 mmHg 92%
    01:00 0°C° 0 mm 0 mps 627 mmHg 92%
    02:00 0°C° 0 mm 0 mps 626 mmHg 92%
    03:00 0°C° 0 mm 0 mps 626 mmHg 92%
    04:00 0°C° 0 mm 0 mps 626 mmHg 92%
    05:00 0°C° 0 mm 0 mps 627 mmHg 92%
    06:00 +1°C° 0 mm 0 mps 627 mmHg 91%
    07:00 +2°C° 0 mm 0 mps 628 mmHg 88%
    08:00 +4°C° 0 mm 1 mps 628 mmHg 85%
    09:00 +5°C° 0 mm 1 mps 628 mmHg 81%
    10:00 +5°C° 0.1 mm 2 mps 628 mmHg 79%
    11:00 +5°C° 0.1 mm 2 mps 629 mmHg 78%
    12:00 +6°C° 0.1 mm 2 mps 629 mmHg 76%
    13:00 +6°C° 0.4 mm 2 mps 629 mmHg 77%
    14:00 +5°C° 0.4 mm 3 mps 628 mmHg 79%
    15:00 +5°C° 0.4 mm 3 mps 628 mmHg 80%
    16:00 +4°C° 0.5 mm 3 mps 628 mmHg 84%
    17:00 +4°C° 0.5 mm 2 mps 628 mmHg 87%
    18:00 +4°C° 0.5 mm 2 mps 628 mmHg 91%
    19:00 +3°C° 0.1 mm 2 mps 629 mmHg 90%
    20:00 +3°C° 0.1 mm 2 mps 629 mmHg 90%
    21:00 +4°C° 0.1 mm 1 mps 629 mmHg 90%
    22:00 +4°C° 0 mm 1 mps 629 mmHg 89%
    23:00 +4°C° 0 mm 1 mps 630 mmHg 88%

    12 April, Sunday

    Time Temperature Precipitation Wind Pressure Humidity
    00:00 +4°C° 0 mm 1 mps 630 mmHg 87%
    01:00 +4°C° 0.1 mm 1 mps 630 mmHg 88%
    02:00 +4°C° 0.1 mm 1 mps 630 mmHg 88%
    03:00 +4°C° 0.1 mm 1 mps 630 mmHg 89%
    04:00 +2°C° 0.1 mm 2 mps 630 mmHg 87%
    05:00 +2°C° 0.1 mm 2 mps 631 mmHg 86%
    06:00 +2°C° 0.1 mm 2 mps 631 mmHg 84%
    07:00 +3°C° 0 mm 2 mps 631 mmHg 82%
    08:00 +3°C° 0 mm 2 mps 632 mmHg 79%
    09:00 +4°C° 0 mm 2 mps 632 mmHg 77%
    10:00 +4°C° 0.1 mm 2 mps 632 mmHg 79%
    11:00 +4°C° 0.1 mm 2 mps 632 mmHg 81%
    12:00 +4°C° 0.1 mm 2 mps 632 mmHg 82%
    13:00 +4°C° 0.1 mm 2 mps 632 mmHg 84%
    14:00 +4°C° 0.1 mm 2 mps 631 mmHg 86%
    15:00 +3°C° 0.1 mm 2 mps 631 mmHg 87%
    16:00 +3°C° 0 mm 2 mps 631 mmHg 88%
    17:00 +3°C° 0 mm 2 mps 631 mmHg 89%
    18:00 +3°C° 0 mm 2 mps 631 mmHg 90%
    19:00 +3°C° 0 mm 1 mps 632 mmHg 90%
    20:00 +3°C° 0 mm 1 mps 632 mmHg 91%
    21:00 +2°C° 0 mm 1 mps 632 mmHg 92%
    22:00 +2°C° 0 mm 1 mps 633 mmHg 92%
    23:00 +2°C° 0 mm 1 mps 633 mmHg 92%

    13 April, Monday

    Time Temperature Precipitation Wind Pressure Humidity
    00:00 +2°C° 0 mm 1 mps 633 mmHg 92%
    01:00 +2°C° 0.1 mm 1 mps 633 mmHg 93%
    02:00 +1°C° 0.1 mm 2 mps 633 mmHg 94%
    03:00 +1°C° 0.1 mm 2 mps 633 mmHg 96%
    04:00 +1°C° 0.7 mm 2 mps 634 mmHg 96%
    05:00 +1°C° 0.7 mm 2 mps 634 mmHg 96%
    06:00 -1°C° 0.7 mm 2 mps 635 mmHg 97%
    07:00 -1°C° 0.6 mm 2 mps 635 mmHg 96%
    08:00 -1°C° 0.6 mm 2 mps 635 mmHg 95%
    09:00 -1°C° 0.6 mm 2 mps 636 mmHg 94%
    10:00 -1°C° 0.2 mm 2 mps 636 mmHg 93%
    11:00 -1°C° 0.2 mm 2 mps 636 mmHg 92%
    12:00 -1°C° 0.2 mm 2 mps 636 mmHg 90%
    13:00 +1°C° 0.1 mm 2 mps 636 mmHg 90%
    14:00 +1°C° 0.1 mm 2 mps 636 mmHg 90%
    15:00 +1°C° 0.1 mm 2 mps 636 mmHg 90%
    16:00 -1°C° 0.1 mm 2 mps 636 mmHg 91%
    17:00 -1°C° 0.1 mm 2 mps 636 mmHg 92%
    18:00 -1°C° 0.1 mm 2 mps 636 mmHg 94%
    19:00 +1°C° 0 mm 1 mps 636 mmHg 94%
    20:00 +1°C° 0 mm 1 mps 636 mmHg 94%
    21:00 +1°C° 0 mm 1 mps 636 mmHg 94%
    22:00 +1°C° 0 mm 1 mps 636 mmHg 94%
    23:00 +1°C° 0 mm 1 mps 636 mmHg 93%

    14 April, Tuesday

    Time Temperature Precipitation Wind Pressure Humidity
    00:00 +1°C° 0 mm 1 mps 636 mmHg 93%
    01:00 +1°C° 0 mm 1 mps 636 mmHg 93%
    02:00 0°C° 0 mm 0 mps 635 mmHg 92%
    03:00 0°C° 0 mm 0 mps 635 mmHg 92%
    04:00 0°C° 0 mm 0 mps 635 mmHg 91%
    05:00 +1°C° 0 mm 1 mps 635 mmHg 90%
    06:00 +1°C° 0 mm 1 mps 635 mmHg 89%
    07:00 +2°C° 0 mm 1 mps 635 mmHg 87%
    08:00 +3°C° 0 mm 1 mps 636 mmHg 84%
    09:00 +3°C° 0 mm 2 mps 636 mmHg 81%
    10:00 +3°C° 0 mm 2 mps 635 mmHg 80%
    11:00 +4°C° 0 mm 2 mps 635 mmHg 79%
    12:00 +5°C° 0 mm 2 mps 635 mmHg 78%
    13:00 +5°C° 0 mm 2 mps 635 mmHg 78%
    14:00 +5°C° 0 mm 2 mps 634 mmHg 79%
    15:00 +6°C° 0 mm 2 mps 634 mmHg 79%
    16:00 +5°C° 0 mm 2 mps 633 mmHg 83%
    17:00 +4°C° 0 mm 2 mps 633 mmHg 86%
    18:00 +5°C° 0 mm 1 mps 632 mmHg 90%
    19:00 +4°C° 0 mm 1 mps 632 mmHg 89%
    20:00 +4°C° 0 mm 1 mps 632 mmHg 88%
    21:00 +3°C° 0 mm 1 mps 632 mmHg 88%
    22:00 +3°C° 0 mm 1 mps 631 mmHg 87%
    23:00 +3°C° 0 mm 1 mps 631 mmHg 86%
    Show more